Overview Statistics Trail Chart Weather Telemetry Raw packets
 

This is the latest recevied weather packets stored in our database for station/object OM4MO-10. If no packets are shown the sender has not sent any weather packets the latest 10 day(s).

<< 3 4 5 6 7 8 9 >>
Time Temp. Humidity Pressure Rain* Wind** Luminosity Snow
1788554611 16.67° C 79% 1016.1 hPa - - - -
1788553711 16.11° C 79% 1016.1 hPa - - - -
1788552811 16.67° C 79% 1016.2 hPa - - - -
1788551911 17.22° C 79% 1016.4 hPa - - - -
1788551011 17.22° C 79% 1016.4 hPa - - - -
1788550111 17.78° C 79% 1016.5 hPa - - - -
1788549211 17.78° C 79% 1016.4 hPa - - - -
1788548310 18.33° C 79% 1016.4 hPa - - - -
1788547410 18.33° C 79% 1016.6 hPa - - - -
1788546510 18.89° C 79% 1016.5 hPa - - - -
1788545610 18.89° C 79% 1016.6 hPa - - - -
1788544710 19.44° C 79% 1016.5 hPa - - - -
1788543810 20° C 79% 1016.4 hPa - - - -
1788542940 20.56° C 79% 1016.2 hPa - - - -
1788542010 21.11° C 79% 1016.2 hPa - - - -
1788541109 22.78° C 79% 1016.3 hPa - - - -
1788540209 22.78° C 79% 1016.4 hPa - - - -
1788539309 23.89° C 80% 1016.5 hPa - - - -
1788538409 24.44° C 80% 1016.4 hPa - - - -
1788537509 25° C 80% 1017.5 hPa - - - -
1788536609 26.11° C 80% 1016.7 hPa - - - -
1788535709 26.67° C 80% 1018 hPa - - - -
1788534808 26.67° C 80% 1018.8 hPa - - - -
1788533908 26.11° C 80% 1018.4 hPa - - - -
1788533008 26.67° C 80% 1020 hPa - - - -

* Rain since midnight (hover to see other rain measurements)
** Current wind speed in m/s (hover to see current wind gust speed)